Terminal Aerodrome Forecast
Issued by NWS

Home | Current Version | Previous Version | Text Only | Print | Product List | Glossary On
Versions: 1 2 3 4 5 6 7 8 9 10 11 12 13 14 15 16 17 18 19 20 21 22 23 24 25 26 27 28 29
000
FTUS46 KMTR 252337
TAFSFO
TAF
KSFO 252337Z 2600/2706 29017KT P6SM FEW008
     FM260330 28011KT P6SM FEW008 BKN010
     FM260800 28006KT P6SM OVC008
     FM261800 28015KT P6SM FEW008
     FM270300 27010KT P6SM FEW008 BKN010=

USA.gov is the U.S. government's official web portal to all federal, state and local government web resources and services.